Location: Antist
(43.1184°N, 0.1270°E)
Time: 09:20:27
(UTC+00:00)

SL-08 R/B - Pass Details

Date: 19 January 2020
Orbit: 950 x 1018 km, 83.0° (Epoch: 27 February)

Event Time Altitude Azimuth Distance (km) Brightness Sun altitude
Rises 19:07:23 0° 178° (S) 3,652 7.6 -24.0°
Reaches altitude 10° 19:09:52 10° 176° (S) 2,719 6.8 -24.4°
Maximum altitude 19:16:03 71° 94° (E) 1,047 4.4 -25.6°
Enters shadow 19:19:40 27° 17° (NNE) 1,810 5.7 -26.2°
Exits shadow 19:24:28 - 11° (N) 3,554 7.3 -27.1°
Sets 19:24:59 0° 10° (N) 3,746 7.4 -27.2°
